�������l�o���
Date,Time,MP-1(��Sv/h),MP-2(��Sv/h),MP-3(��Sv/h),MP-4(��Sv/h),MP-5(��Sv/h),MP-6(��Sv/h),MP-7(��Sv/h),����,����(m/s),���J
2013/08/31,00:00,0.9,0.6,0.9,0.9,0.8,0.4,0.3,�k,3.1,��
2013/08/31,00:10,0.9,0.6,0.9,0.9,0.8,0.4,0.3,�k,2.3,��
2013/08/31,00:20,0.9,0.6,0.9,0.9,0.8,0.4,0.3,�k,2.8,��
2013/08/31,00:30,0.9,0.6,0.9,0.9,0.8,0.4,0.3,�k,2.8,��
2013/08/31,00:40,0.9,0.6,0.9,0.9,0.8,0.4,0.3,�k,3.0,��
2013/08/31,00:50,0.9,0.6,0.9,0.9,0.8,0.4,0.3,�k,2.9,��
2013/08/31,01:00,0.9,0.6,0.9,0.9,0.8,0.4,0.3,�k,2.2,��
2013/08/31,01:10,0.9,0.6,0.9,0.9,0.8,0.4,0.3,�k�k��,3.5,��
2013/08/31,01:20,0.9,0.6,0.9,0.9,0.8,0.4,0.3,�k�k��,2.5,��
2013/08/31,01:30,0.9,0.6,0.9,0.9,0.8,0.4,0.3,�k�k��,2.8,��
2013/08/31,01:40,0.9,0.6,0.9,0.9,0.8,0.4,0.3,�k�k��,2.4,��
2013/08/31,01:50,0.9,0.6,0.9,0.9,0.8,0.4,0.3,�k�k��,1.9,��
2013/08/31,02:00,0.9,0.6,0.9,0.9,0.8,0.4,0.3,�k�k��,2.0,��
2013/08/31,02:10,0.9,0.6,0.9,0.9,0.8,0.4,0.3,�k�k��,1.9,��
2013/08/31,02:20,0.9,0.6,0.9,0.9,0.8,0.4,0.3,�k�k��,1.7,��
2013/08/31,02:30,0.9,0.6,0.9,0.9,0.8,0.4,0.3,�k��,2.4,��
2013/08/31,02:40,0.9,0.6,0.9,0.9,0.8,0.4,0.3,�k�k��,2.6,��
2013/08/31,02:50,0.9,0.6,0.9,0.9,0.8,0.4,0.3,�k�k��,2.6,��
2013/08/31,03:00,0.9,0.6,0.9,0.9,0.8,0.4,0.3,�k��,2.8,��
2013/08/31,03:10,0.9,0.6,0.9,0.9,0.8,0.4,0.3,�k��,3.1,��
2013/08/31,03:20,0.9,0.6,0.9,0.9,0.8,0.4,0.3,�k��,2.6,��
2013/08/31,03:30,0.9,0.6,0.9,0.9,0.8,0.4,0.3,�k��,2.6,��
2013/08/31,03:40,0.9,0.6,0.9,0.9,0.8,0.4,0.3,�k��,2.5,��
2013/08/31,03:50,0.9,0.6,0.9,0.9,0.8,0.4,0.3,�k��,2.3,��
2013/08/31,04:00,0.9,0.6,0.9,0.9,0.8,0.4,0.3,�k�k��,2.9,��
2013/08/31,04:10,0.9,0.6,0.9,0.9,0.8,0.4,0.3,�k�k��,2.7,��
2013/08/31,04:20,0.9,0.6,0.9,0.9,0.8,0.4,0.3,�k�k��,2.3,��
2013/08/31,04:30,0.9,0.6,0.9,0.9,0.8,0.4,0.3,�k�k��,1.6,��
2013/08/31,04:40,0.9,0.6,0.9,0.9,0.8,0.4,0.3,�k,1.6,��
2013/08/31,04:50,0.9,0.6,0.9,0.9,0.8,0.4,0.3,�k�k��,1.9,��
2013/08/31,05:00,0.9,0.6,0.9,0.9,0.8,0.4,0.3,�k,2.5,��
2013/08/31,05:10,0.9,0.6,0.9,0.9,0.8,0.4,0.3,�k,1.9,��
2013/08/31,05:20,0.9,0.6,0.9,0.9,0.8,0.4,0.3,�k�k��,2.2,��
2013/08/31,05:30,0.9,0.6,0.9,0.9,0.8,0.4,0.3,�k�k��,2.2,��
2013/08/31,05:40,0.9,0.6,0.9,0.9,0.8,0.4,0.3,�k�k��,2.4,��
2013/08/31,05:50,0.9,0.6,0.9,0.9,0.8,0.4,0.3,�k�k��,2.5,��
2013/08/31,06:00,0.9,0.6,0.9,0.9,0.8,0.4,0.3,�k�k��,2.3,��
2013/08/31,06:10,0.9,0.6,0.9,0.9,0.8,0.4,0.3,�k�k��,1.6,��
2013/08/31,06:20,0.9,0.6,0.9,0.9,0.8,0.4,0.3,�k�k��,1.0,��
2013/08/31,06:30,0.9,0.6,0.9,0.9,0.8,0.4,0.3,�k,1.4,��
2013/08/31,06:40,0.9,0.6,0.9,0.9,0.8,0.4,0.3,�k�k��,1.5,��
2013/08/31,06:50,0.9,0.6,0.9,0.9,0.8,0.4,0.3,�k�k��,1.4,��
2013/08/31,07:00,0.9,0.6,0.9,0.9,0.8,0.4,0.3,�k��,1.3,��
2013/08/31,07:10,0.9,0.6,0.9,0.9,0.8,0.4,0.3,�k�k��,2.2,��
2013/08/31,07:20,0.9,0.6,0.9,0.9,0.8,0.4,0.3,�k�k��,3.3,��
2013/08/31,07:30,0.9,0.6,0.9,0.9,0.8,0.4,0.3,�k�k��,2.9,��
2013/08/31,07:40,0.9,0.6,0.9,0.9,0.8,0.4,0.3,�k�k��,4.0,��
2013/08/31,07:50,0.9,0.6,0.9,0.9,0.8,0.4,0.3,�k,4.5,��
2013/08/31,08:00,0.9,0.6,0.9,0.9,0.8,0.4,0.3,�k�k��,4.5,��
2013/08/31,08:10,0.9,0.6,0.9,0.9,0.8,0.4,0.3,�k�k��,4.0,��
2013/08/31,08:20,0.9,0.6,0.9,0.9,0.8,0.4,0.3,�k�k��,4.3,��
2013/08/31,08:30,0.9,0.6,0.9,0.9,0.8,0.4,0.3,�k��,3.7,��
2013/08/31,08:40,0.9,0.6,0.9,0.9,0.8,0.4,0.3,�k�k��,2.3,��
2013/08/31,08:50,0.9,0.6,0.9,0.9,0.8,0.4,0.3,�k�k��,2.6,��
2013/08/31,09:00,0.9,0.6,0.9,0.9,0.8,0.4,0.3,�k�k��,3.1,��
2013/08/31,09:10,0.9,0.6,0.9,0.9,0.8,0.4,0.3,�k�k��,1.6,��
2013/08/31,09:20,0.9,0.6,0.9,0.9,0.8,0.4,0.3,�k�k��,2.4,��
2013/08/31,09:30,0.9,0.6,0.9,0.9,0.8,0.4,0.3,�k�k��,1.6,��
2013/08/31,09:40,0.9,0.6,0.9,0.9,0.8,0.4,0.3,�k��,0.9,��
2013/08/31,09:50,0.9,0.6,0.9,0.9,0.8,0.4,0.3,�k��,1.2,��
2013/08/31,10:00,0.9,0.6,0.9,0.9,0.8,0.4,0.3,��,0.5,��
2013/08/31,10:10,0.9,0.6,0.9,0.9,0.8,0.4,0.3,���쓌,0.6,��
2013/08/31,10:20,0.9,0.6,0.9,0.9,0.8,0.4,0.3,�k��,1.2,��
2013/08/31,10:30,0.9,0.6,0.9,0.9,0.8,0.4,0.3,���k��,1.0,��
2013/08/31,10:40,0.9,0.6,0.9,0.9,0.8,0.4,0.3,���k��,1.9,��
2013/08/31,10:50,0.9,0.6,0.9,0.9,0.8,0.4,0.3,���k��,2.3,��
2013/08/31,11:00,0.9,0.6,0.9,0.9,0.8,0.4,0.3,���k��,2.5,��
2013/08/31,11:10,0.9,0.6,0.9,0.9,0.8,0.4,0.3,�k��,3.0,��
2013/08/31,11:20,0.9,0.6,0.9,0.9,0.8,0.4,0.3,�k��,3.0,��
2013/08/31,11:30,0.9,0.6,0.9,0.9,0.8,0.4,0.3,�k��,3.6,��
2013/08/31,11:40,0.9,0.6,0.9,0.9,0.8,0.4,0.3,���k��,3.6,��
2013/08/31,11:50,0.9,0.6,0.9,0.9,0.8,0.4,0.3,�k��,3.8,��
2013/08/31,12:00,0.9,0.6,0.9,0.9,0.8,0.4,0.3,���k��,4.0,��
2013/08/31,12:10,0.9,0.6,0.9,0.9,0.8,0.4,0.3,�k��,4.5,��
2013/08/31,12:20,0.9,0.6,0.9,0.9,0.8,0.4,0.3,�k�k��,3.7,��
2013/08/31,12:30,0.9,0.6,0.9,0.9,0.8,0.4,0.3,�k�k��,3.0,��
2013/08/31,12:40,0.9,0.6,0.9,0.9,0.8,0.4,0.3,�k�k��,4.0,��
2013/08/31,12:50,0.9,0.6,0.9,0.9,0.8,0.4,0.3,�k��,4.2,��
2013/08/31,13:00,0.9,0.6,0.9,0.9,0.8,0.4,0.3,�k��,3.6,��
2013/08/31,13:10,0.9,0.6,0.9,0.9,0.8,0.4,0.3,�k��,3.3,��
2013/08/31,13:20,0.9,0.6,0.9,0.9,0.8,0.4,0.3,�k�k��,3.2,��
2013/08/31,13:30,0.9,0.6,0.9,0.9,0.8,0.4,0.3,�k��,3.2,��
2013/08/31,13:40,0.9,0.6,0.9,0.9,0.8,0.4,0.3,�k�k��,2.8,��
2013/08/31,13:50,0.9,0.6,0.9,0.9,0.8,0.4,0.3,�k��,2.8,��
2013/08/31,14:00,0.9,0.6,0.9,0.9,0.8,0.4,0.3,�k��,2.2,��
2013/08/31,14:10,0.9,0.6,0.9,0.9,0.8,0.4,0.3,���k��,2.3,��
2013/08/31,14:20,0.9,0.6,0.9,0.9,0.8,0.4,0.3,�k��,1.4,��
2013/08/31,14:30,0.9,0.6,0.9,0.9,0.8,0.4,0.3,�k��,1.1,��
2013/08/31,14:40,0.9,0.6,0.9,0.9,0.8,0.4,0.3,�k��,2.8,��
2013/08/31,14:50,0.9,0.6,0.9,0.9,0.8,0.4,0.3,�k��,2.2,��
2013/08/31,15:00,0.9,0.6,0.9,0.9,0.8,0.4,0.3,��,1.9,��
2013/08/31,15:10,0.9,0.6,0.9,0.9,0.8,0.4,0.3,���k��,2.3,��
2013/08/31,15:20,0.9,0.6,0.9,0.9,0.8,0.4,0.3,���k��,1.6,��
2013/08/31,15:30,0.9,0.6,0.9,0.9,0.8,0.4,0.3,���k��,2.0,��
2013/08/31,15:40,0.9,0.6,0.9,0.9,0.8,0.4,0.3,��,1.6,��
2013/08/31,15:50,0.9,0.6,0.9,0.9,0.8,0.4,0.3,�k�k��,1.3,��
2013/08/31,16:00,0.9,0.6,0.9,0.9,0.8,0.4,0.3,��,0.7,��
2013/08/31,16:10,0.9,0.6,0.9,0.9,0.8,0.4,0.3,�k�k��,0.6,��
2013/08/31,16:20,0.9,0.6,0.9,0.9,0.8,0.4,0.3,�k��,1.4,��
2013/08/31,16:30,0.9,0.6,0.9,0.9,0.8,0.4,0.3,�k�k��,0.7,��
2013/08/31,16:40,0.9,0.6,0.9,0.9,0.8,0.4,0.3,���k��,0.5,��
2013/08/31,16:50,0.9,0.6,0.9,0.9,0.8,0.4,0.3,�k�k��,0.8,��
2013/08/31,17:00,0.9,0.6,0.9,0.9,0.8,0.4,0.3,��,1.4,��
2013/08/31,17:10,0.9,0.6,0.9,0.9,0.8,0.4,0.3,���쓌,0.9,��
2013/08/31,17:20,0.9,0.6,0.9,0.9,0.8,0.4,0.3,-,CALM,��
2013/08/31,17:30,0.9,0.6,0.9,0.9,0.8,0.4,0.3,���쓌,1.1,��
2013/08/31,17:40,0.9,0.6,0.9,0.9,0.8,0.4,0.3,��,0.7,��
2013/08/31,17:50,0.9,0.6,0.9,0.9,0.8,0.4,0.3,���k��,1.5,��
2013/08/31,18:00,0.9,0.6,0.9,0.9,0.8,0.4,0.3,�k��,0.7,��
2013/08/31,18:10,0.9,0.6,0.9,0.9,0.8,0.4,0.3,�k,0.6,��
2013/08/31,18:20,0.9,0.6,0.9,0.9,0.8,0.4,0.3,-,CALM,��
2013/08/31,18:30,0.9,0.6,0.9,0.9,0.8,0.4,0.3,-,CALM,��
2013/08/31,18:40,0.9,0.6,0.9,0.9,0.8,0.4,0.3,-,CALM,��
2013/08/31,18:50,0.9,0.6,0.9,0.9,0.8,0.4,0.3,-,CALM,��
2013/08/31,19:00,0.9,0.6,0.9,0.9,0.8,0.4,0.3,-,CALM,��
2013/08/31,19:10,0.9,0.6,0.9,0.9,0.8,0.4,0.3,��,0.8,��
2013/08/31,19:20,0.9,0.6,0.9,0.9,0.8,0.4,0.3,��쐼,1.4,��
2013/08/31,19:30,0.9,0.6,0.9,0.9,0.8,0.4,0.3,��,1.1,��
2013/08/31,19:40,0.9,0.6,0.9,0.9,0.8,0.4,0.3,��,2.8,��
2013/08/31,19:50,0.9,0.6,0.9,0.9,0.8,0.4,0.3,��,2.4,��
2013/08/31,20:00,0.9,0.6,0.9,0.9,0.8,0.4,0.3,��,3.9,��
2013/08/31,20:10,0.9,0.6,0.9,0.9,0.8,0.4,0.3,��,3.3,��
2013/08/31,20:20,0.9,0.6,0.9,0.9,0.8,0.4,0.3,��,4.2,��
2013/08/31,20:30,0.9,0.6,0.9,0.9,0.8,0.4,0.3,��,4.4,��
2013/08/31,20:40,0.9,0.6,0.9,0.9,0.8,0.4,0.3,��,4.8,��
2013/08/31,20:50,0.9,0.6,0.9,0.9,0.8,0.4,0.3,��,4.4,��
2013/08/31,21:00,0.9,0.6,0.9,0.9,0.8,0.4,0.3,��,2.8,��
2013/08/31,21:10,0.9,0.6,0.9,0.9,0.8,0.4,0.3,��쐼,1.5,��
2013/08/31,21:20,0.9,0.6,0.9,0.9,0.8,0.4,0.3,��쐼,1.6,��
2013/08/31,21:30,0.9,0.6,0.9,0.9,0.8,0.4,0.3,�쐼,0.5,��
2013/08/31,21:40,0.9,0.6,0.9,0.9,0.8,0.4,0.3,-,CALM,��
2013/08/31,21:50,0.9,0.6,0.9,0.9,0.8,0.4,0.3,-,CALM,��
2013/08/31,22:00,0.9,0.6,0.9,0.9,0.8,0.4,0.3,�k�k��,4.5,�L
2013/08/31,22:10,0.9,0.6,0.9,0.9,0.8,0.4,0.3,�k,4.2,�L
2013/08/31,22:20,0.9,0.6,0.9,0.9,0.8,0.4,0.3,�k�k��,4.1,�L
2013/08/31,22:30,0.9,0.6,0.9,0.9,0.8,0.4,0.3,���k��,1.4,��
2013/08/31,22:40,0.9,0.6,0.9,0.9,0.8,0.4,0.3,��,3.6,��
2013/08/31,22:50,0.9,0.6,0.9,0.9,0.8,0.4,0.3,��,6.9,�L
2013/08/31,23:00,0.9,0.6,0.9,0.9,0.8,0.4,0.3,��,9.5,�L
2013/08/31,23:10,0.9,0.6,0.9,0.9,0.8,0.4,0.3,��,2.8,�L
2013/08/31,23:20,0.9,0.6,0.9,0.9,0.8,0.4,0.3,��쓌,0.7,�L
2013/08/31,23:30,0.9,0.6,0.9,0.9,0.8,0.4,0.3,�k�k��,1.6,�L
2013/08/31,23:40,0.9,0.6,0.9,0.9,0.8,0.4,0.3,���k��,1.9,�L
2013/08/31,23:50,0.9,0.6,0.9,0.9,0.8,0.4,0.3,���k��,3.6,�L
